�������l�o���
Date,Time,MP-1(��Sv/h),MP-2(��Sv/h),MP-3(��Sv/h),MP-4(��Sv/h),MP-5(��Sv/h),MP-6(��Sv/h),MP-7(��Sv/h),MP-8(��Sv/h),����,����(m/s),���J
2016/06/22,00:00,1.302,-,2.263,2.254,2.040,0.641,1.202,1.042,�k�k��,2.6,��
2016/06/22,00:10,1.303,-,2.266,2.252,2.039,0.642,1.202,1.041,�k�k��,2.3,��
2016/06/22,00:20,1.301,-,2.267,2.256,2.039,0.643,1.203,1.040,�k�k��,2.5,��
2016/06/22,00:30,1.302,-,2.267,2.253,2.043,0.643,1.202,1.040,�k�k��,2.3,��
2016/06/22,00:40,1.304,-,2.266,2.256,2.042,0.642,1.206,1.042,�k,2.3,��
2016/06/22,00:50,1.301,-,2.266,2.254,2.041,0.641,1.204,1.041,�k,2.9,��
2016/06/22,01:00,1.303,-,2.266,2.253,2.043,0.642,1.203,1.041,�k,2.6,��
2016/06/22,01:10,1.301,-,2.265,2.254,2.041,0.642,1.201,1.041,�k,2.3,��
2016/06/22,01:20,1.303,-,2.266,2.252,2.041,0.643,1.204,1.040,�k,2.3,��
2016/06/22,01:30,1.304,-,2.266,2.254,2.038,0.641,1.203,1.042,�k,3.0,��
2016/06/22,01:40,1.301,-,2.267,2.253,2.038,0.643,1.203,1.040,�k,3.4,��
2016/06/22,01:50,1.302,-,2.265,2.252,2.039,0.641,1.201,1.041,�k,3.6,��
2016/06/22,02:00,1.301,-,2.265,2.256,2.041,0.642,1.203,1.040,�k�k��,2.5,��
2016/06/22,02:10,1.301,-,2.265,2.251,2.042,0.644,1.205,1.041,�k�k��,2.3,��
2016/06/22,02:20,1.301,-,2.264,2.255,2.042,0.642,1.203,1.040,�k�k��,1.9,��
2016/06/22,02:30,1.301,-,2.263,2.253,2.039,0.643,1.203,1.041,�k,2.9,��
2016/06/22,02:40,1.301,-,2.264,2.251,2.040,0.643,1.203,1.041,�k,3.3,��
2016/06/22,02:50,1.298,-,2.259,2.256,2.037,0.643,1.204,1.041,�k,3.4,��
2016/06/22,03:00,1.299,-,2.263,2.253,2.037,0.641,1.201,1.039,�k,2.6,��
2016/06/22,03:10,1.299,-,2.261,2.251,2.040,0.643,1.203,1.039,�k,2.0,��
2016/06/22,03:20,1.298,-,2.260,2.253,2.038,0.644,1.203,1.041,�k�k��,1.9,��
2016/06/22,03:30,1.297,-,2.262,2.250,2.041,0.644,1.202,1.039,�k�k��,1.9,��
2016/06/22,03:40,1.296,-,2.262,2.250,2.036,0.643,1.203,1.042,�k,1.4,��
2016/06/22,03:50,1.297,-,2.258,2.251,2.042,0.643,1.203,1.042,�k,1.4,��
2016/06/22,04:00,1.298,-,2.262,2.250,2.038,0.643,1.203,1.042,�k,2.0,��
2016/06/22,04:10,1.299,-,2.259,2.249,2.040,0.642,1.204,1.039,�k�k��,1.5,��
2016/06/22,04:20,1.296,-,2.258,2.249,2.038,0.644,1.203,1.041,�k,1.1,��
2016/06/22,04:30,1.297,-,2.258,2.251,2.038,0.643,1.203,1.039,-,CALM,��
2016/06/22,04:40,1.296,-,2.259,2.252,2.040,0.642,1.203,1.039,�k�k��,0.9,��
2016/06/22,04:50,1.297,-,2.258,2.252,2.038,0.641,1.203,1.040,�k�k��,1.1,��
2016/06/22,05:00,1.296,-,2.258,2.249,2.039,0.641,1.205,1.039,�k�k��,1.2,��
2016/06/22,05:10,1.296,-,2.257,2.252,2.040,0.640,1.202,1.040,�k��,1.4,��
2016/06/22,05:20,1.295,-,2.257,2.250,2.037,0.643,1.201,1.042,�k�k��,0.6,��
2016/06/22,05:30,1.297,-,2.256,2.250,2.038,0.642,1.200,1.040,���k��,0.8,��
2016/06/22,05:40,1.297,-,2.257,2.251,2.038,0.641,1.199,1.038,�k�k��,0.8,��
2016/06/22,05:50,1.296,-,2.261,2.250,2.035,0.641,1.199,1.041,�k,1.4,��
2016/06/22,06:00,1.298,-,2.260,2.252,2.034,0.639,1.203,1.040,�k�k��,0.9,��
2016/06/22,06:10,1.297,-,2.258,2.253,2.034,0.638,1.201,1.040,-,CALM,��
2016/06/22,06:20,1.296,-,2.262,2.252,2.041,0.639,1.204,1.040,-,CALM,��
2016/06/22,06:30,1.296,-,2.261,2.250,2.036,0.638,1.201,1.039,-,CALM,��
2016/06/22,06:40,1.297,-,2.258,2.252,2.036,0.640,1.203,1.038,���쓌,0.9,��
2016/06/22,06:50,1.298,-,2.260,2.248,2.037,0.638,1.200,1.037,���k��,1.2,��
2016/06/22,07:00,1.295,-,2.259,2.254,2.037,0.639,1.202,1.040,���k��,1.4,��
2016/06/22,07:10,1.296,-,2.259,2.249,2.037,0.639,1.199,1.039,�k��,1.2,��
2016/06/22,07:20,1.297,-,2.259,2.251,2.036,0.639,1.202,1.039,�k�k��,0.8,��
2016/06/22,07:30,1.296,-,2.257,2.252,2.036,0.639,1.201,1.041,���k��,1.1,��
2016/06/22,07:40,1.294,-,2.259,2.252,2.037,0.639,1.201,1.041,���k��,1.2,��
2016/06/22,07:50,1.298,-,2.257,2.249,2.035,0.640,1.202,1.041,���k��,1.1,��
2016/06/22,08:00,1.295,-,2.262,2.252,2.040,0.640,1.200,1.039,�k��,0.8,��
2016/06/22,08:10,1.298,-,2.260,2.251,2.039,0.640,1.202,1.039,�k�k��,1.1,��
2016/06/22,08:20,1.296,-,2.261,2.252,2.038,0.641,1.200,1.037,�k,1.5,��
2016/06/22,08:30,1.296,-,2.263,2.253,2.039,0.641,1.202,1.038,�k�k��,0.9,��
2016/06/22,08:40,1.295,-,2.262,2.254,2.039,0.640,1.201,1.041,�k��,1.2,��
2016/06/22,08:50,1.298,-,2.263,2.253,2.035,0.640,1.201,1.039,�k�k��,2.2,��
2016/06/22,09:00,1.294,-,2.258,2.256,2.026,0.640,1.201,1.040,�k��,2.6,��
2016/06/22,09:10,1.294,-,2.259,2.253,2.022,0.639,1.202,1.038,���k��,1.5,��
2016/06/22,09:20,1.297,-,2.261,2.254,2.022,0.638,1.204,1.038,���k��,2.3,��
2016/06/22,09:30,1.294,-,2.260,2.254,2.030,0.640,1.202,1.038,�k��,2.8,��
2016/06/22,09:40,1.295,-,2.258,2.254,2.029,0.642,1.202,1.038,��,3.1,��
2016/06/22,09:50,1.295,-,2.261,2.255,2.024,0.642,1.200,1.040,���k��,2.9,��
2016/06/22,10:00,1.292,-,2.261,2.254,2.015,0.641,1.201,1.039,���k��,3.0,��
2016/06/22,10:10,1.294,-,2.263,2.254,2.010,0.638,1.203,1.038,���k��,2.6,��
2016/06/22,10:20,1.295,-,2.262,2.252,2.004,0.640,1.203,1.039,��,2.3,��
2016/06/22,10:30,1.297,-,2.262,2.251,1.996,0.642,1.202,1.038,���k��,2.9,��
2016/06/22,10:40,1.296,-,2.262,2.249,1.989,0.640,1.205,1.037,�k��,2.6,��
2016/06/22,10:50,1.295,-,2.264,2.253,1.975,0.642,1.201,1.039,�k��,3.0,��
2016/06/22,11:00,1.297,-,2.266,2.254,1.993,0.642,1.205,1.038,�k�k��,3.4,��
2016/06/22,11:10,1.301,-,2.261,2.257,1.992,0.641,1.202,1.038,�k�k��,2.9,��
2016/06/22,11:20,1.300,-,2.267,2.253,1.990,0.641,1.203,1.037,�k��,3.1,��
2016/06/22,11:30,1.300,-,2.263,2.259,1.998,0.644,1.204,1.038,�k��,2.9,��
2016/06/22,11:40,1.298,-,2.260,2.256,2.011,0.642,1.203,1.039,�k��,2.6,��
2016/06/22,11:50,1.301,-,2.264,2.254,2.010,0.642,1.203,1.038,�k��,2.8,��
2016/06/22,12:00,1.302,-,2.264,2.255,2.012,0.643,1.205,1.038,���k��,2.9,��
2016/06/22,12:10,1.302,-,2.264,2.256,2.013,0.642,1.201,1.037,���k��,2.8,��
2016/06/22,12:20,1.303,-,2.260,2.254,2.011,0.641,1.205,1.037,�k��,3.0,��
2016/06/22,12:30,1.300,-,2.264,2.256,2.015,0.642,1.205,1.037,���k��,2.9,��
2016/06/22,12:40,1.303,-,2.267,2.254,2.015,0.644,1.204,1.040,�k��,2.2,��
2016/06/22,12:50,1.303,-,2.267,2.257,2.014,0.640,1.203,1.038,�k��,2.5,��
2016/06/22,13:00,1.301,-,2.263,2.251,2.017,0.641,1.203,1.038,�k��,2.2,��
2016/06/22,13:10,1.298,-,2.266,2.256,2.013,0.641,1.203,1.039,���k��,2.3,��
2016/06/22,13:20,1.299,-,2.270,2.258,2.013,0.644,1.203,1.040,���k��,2.3,��
2016/06/22,13:30,1.300,-,2.265,2.258,2.012,0.639,1.205,1.038,���k��,2.6,��
2016/06/22,13:40,1.302,-,2.269,2.257,2.010,0.643,1.203,1.039,�k��,2.5,��
2016/06/22,13:50,1.301,-,2.270,2.260,2.012,0.642,1.200,1.040,�k��,2.6,��
2016/06/22,14:00,1.300,-,2.273,2.258,2.012,0.642,1.198,1.037,�k��,2.5,��
2016/06/22,14:10,1.301,-,2.267,2.256,2.011,0.643,1.198,1.040,�k��,2.5,��
2016/06/22,14:20,1.304,-,2.270,2.258,2.012,0.641,1.199,1.039,���k��,2.3,��
2016/06/22,14:30,1.302,-,2.267,2.258,2.011,0.640,1.196,1.038,���k��,2.3,��
2016/06/22,14:40,1.300,-,2.268,2.257,2.011,0.643,1.197,1.039,���k��,2.0,��
2016/06/22,14:50,1.303,-,2.271,2.258,2.013,0.643,1.197,1.039,���k��,2.3,��
2016/06/22,15:00,1.303,-,2.274,2.258,2.016,0.644,1.196,1.039,���k��,1.7,��
2016/06/22,15:10,1.302,-,2.271,2.260,2.018,0.643,1.199,1.039,���쓌,1.9,��
2016/06/22,15:20,1.302,-,2.274,2.255,2.016,0.646,1.204,1.041,���쓌,1.7,��
2016/06/22,15:30,1.305,-,2.273,2.261,2.020,0.636,1.202,1.040,���쓌,1.4,��
2016/06/22,15:40,1.304,-,2.272,2.258,2.019,0.638,1.203,1.039,��쓌,1.2,��
2016/06/22,15:50,1.303,-,2.273,2.258,2.020,0.631,1.205,1.038,�쓌,0.9,��
2016/06/22,16:00,1.302,-,2.273,2.256,2.021,0.625,1.202,1.039,���쓌,0.9,��
2016/06/22,16:10,1.305,-,2.273,2.257,2.018,0.631,1.204,1.040,�쓌,0.9,��
2016/06/22,16:20,1.304,-,2.273,2.259,2.020,0.637,1.203,1.039,-,CALM,��
2016/06/22,16:30,1.305,-,2.274,2.258,2.017,0.636,1.203,1.040,��쓌,0.6,��
2016/06/22,16:40,1.305,-,2.271,2.258,2.018,0.639,1.204,1.040,�k�k��,0.6,��
2016/06/22,16:50,1.305,-,2.274,2.258,2.019,0.649,1.203,1.039,�k�k��,1.2,��
2016/06/22,17:00,1.304,-,2.272,2.260,2.006,0.645,1.204,1.040,�k,0.8,��
2016/06/22,17:10,1.304,-,2.272,2.259,2.016,0.645,1.204,1.042,�k,1.1,��
2016/06/22,17:20,1.306,-,2.273,2.260,2.017,0.645,1.204,1.040,�k,0.8,��
2016/06/22,17:30,1.305,-,2.273,2.261,2.020,0.646,1.205,1.039,�k�k��,0.6,��
2016/06/22,17:40,1.305,-,2.273,2.261,2.021,0.646,1.203,1.039,-,CALM,��
2016/06/22,17:50,1.306,-,2.273,2.257,2.019,0.646,1.202,1.038,�쓌,0.8,��
2016/06/22,18:00,1.305,-,2.271,2.254,2.016,0.646,1.202,1.040,��쓌,1.7,��
2016/06/22,18:10,1.303,-,2.269,2.258,2.014,0.646,1.203,1.038,-,CALM,��
2016/06/22,18:20,1.304,-,2.272,2.258,2.011,0.644,1.203,1.039,-,CALM,��
2016/06/22,18:30,1.304,-,2.272,2.255,2.013,0.646,1.203,1.038,��쓌,0.9,��
2016/06/22,18:40,1.307,-,2.269,2.254,2.013,0.646,1.204,1.040,��,2.6,��
2016/06/22,18:50,1.303,-,2.269,2.258,2.012,0.644,1.204,1.041,��쓌,2.6,��
2016/06/22,19:00,1.304,-,2.269,2.257,2.012,0.644,1.203,1.040,��쓌,3.1,��
2016/06/22,19:10,1.305,-,2.270,2.258,2.013,0.645,1.205,1.041,��쓌,3.0,��
2016/06/22,19:20,1.304,-,2.269,2.256,2.013,0.645,1.203,1.042,��쓌,3.4,��
2016/06/22,19:30,1.305,-,2.269,2.255,2.015,0.645,1.203,1.039,��쓌,2.9,��
2016/06/22,19:40,1.305,-,2.272,2.257,2.015,0.644,1.203,1.041,��쓌,4.2,��
2016/06/22,19:50,1.305,-,2.268,2.255,2.013,0.646,1.204,1.041,��쓌,2.6,�L
2016/06/22,20:00,1.304,-,2.268,2.256,2.009,0.645,1.203,1.040,��쓌,2.8,��
2016/06/22,20:10,1.306,-,2.269,2.257,2.011,0.644,1.203,1.043,��쓌,4.0,��
2016/06/22,20:20,1.304,-,2.270,2.259,2.008,0.644,1.204,1.040,��쓌,3.4,��
2016/06/22,20:30,1.304,-,2.267,2.255,2.010,0.644,1.204,1.042,��쓌,3.9,��
2016/06/22,20:40,1.304,-,2.265,2.253,2.007,0.646,1.204,1.041,��쓌,3.3,��
2016/06/22,20:50,1.305,-,2.266,2.255,2.007,0.645,1.203,1.041,��쓌,3.9,��
2016/06/22,21:00,1.306,-,2.265,2.260,2.005,0.644,1.203,1.040,��,2.8,��
2016/06/22,21:10,1.304,-,2.270,2.254,2.007,0.644,1.204,1.042,��쓌,4.9,��
2016/06/22,21:20,1.302,-,2.268,2.257,2.007,0.643,1.204,1.041,��쓌,5.3,��
2016/06/22,21:30,1.301,-,2.269,2.256,2.008,0.645,1.203,1.041,��쓌,3.3,��
2016/06/22,21:40,1.304,-,2.268,2.257,2.006,0.642,1.202,1.041,��쓌,3.7,��
2016/06/22,21:50,1.304,-,2.268,2.256,2.007,0.645,1.204,1.040,��쓌,4.3,��
2016/06/22,22:00,1.304,-,2.270,2.256,2.009,0.642,1.203,1.042,��쓌,4.8,��
2016/06/22,22:10,1.306,-,2.266,2.257,2.006,0.642,1.204,1.042,��쓌,5.6,��
2016/06/22,22:20,1.302,-,2.264,2.253,2.004,0.645,1.202,1.040,��,5.5,�L
2016/06/22,22:30,1.304,-,2.266,2.255,2.007,0.642,1.204,1.042,��쓌,5.1,��
2016/06/22,22:40,1.306,-,2.265,2.257,2.008,0.644,1.202,1.041,��쓌,4.4,��
2016/06/22,22:50,1.304,-,2.266,2.254,2.005,0.645,1.203,1.039,��쓌,4.7,��
2016/06/22,23:00,1.303,-,2.265,2.255,2.006,0.644,1.203,1.043,��쓌,4.8,��
2016/06/22,23:10,1.307,-,2.269,2.255,2.008,0.645,1.201,1.040,�쓌,5.2,��
2016/06/22,23:20,1.305,-,2.265,2.251,2.005,0.644,1.203,1.043,��쓌,4.1,��
2016/06/22,23:30,1.303,-,2.265,2.254,2.003,0.645,1.202,1.040,��쓌,3.6,��
2016/06/22,23:40,1.306,-,2.266,2.254,2.006,0.645,1.204,1.042,��,2.5,��
2016/06/22,23:50,1.305,-,2.266,2.256,2.006,0.644,1.204,1.040,�쓌,3.4,��
